,,,PA_Meas_PMT16A,,PR_Meas_QMR101_102,,RH_Meas_QMH101,,SR_Meas_QMS101,,TA_Meas_QMH101,,GenWind,,GenWind,
date,time,status,PA,status,PR,status,RH,status,SR,status,TA,status,DirAvg,status,SpdAvg,
2014-09-04, 00:00:04,VALID,1010.25,VALID,0,INVALID,126.801,VALID,0,VALID,24.4717,VALID,322,VALID,0.163672,
2014-09-04, 00:01:04,VALID,1010.22,VALID,0,INVALID,127.137,VALID,0,VALID,24.493,VALID,322,VALID,0.304297,
2014-09-04, 00:02:04,VALID,1010.21,VALID,0,INVALID,128.151,VALID,0,VALID,24.4735,VALID,322,VALID,0.252734,
2014-09-04, 00:03:04,VALID,1010.2,VALID,0,INVALID,130.812,VALID,0,VALID,24.4735,VALID,322,VALID,0.103906,
2014-09-04, 00:04:04,VALID,1010.23,VALID,0,INVALID,132.49,VALID,0,VALID,24.4522,VALID,322,VALID,0,
2014-09-04, 00:05:04,VALID,1010.25,VALID,0,INVALID,133.565,VALID,0.112112,VALID,24.4717,VALID,322,VALID,0.128125,
2014-09-04, 00:06:04,VALID,1010.27,VALID,0,INVALID,132.795,VALID,0,VALID,24.4522,VALID,322,VALID,0.277344,
2014-09-04, 00:07:04,VALID,1010.27,VALID,0,INVALID,132.292,VALID,0,VALID,24.454,VALID,322,VALID,0.509766,
2014-09-04, 00:08:04,VALID,1010.26,VALID,0,INVALID,132.955,VALID,0,VALID,24.4735,VALID,322,VALID,0.547266,
2014-09-04, 00:09:04,VALID,1010.24,VALID,0,INVALID,133.001,VALID,0,VALID,24.454,VALID,322,VALID,0.593359,
2014-09-04, 00:10:04,VALID,1010.23,VALID,0,INVALID,133.489,VALID,0,VALID,24.4345,VALID,322,VALID,0.58125,
2014-09-04, 00:11:04,VALID,1010.22,VALID,0,INVALID,133.832,VALID,0,VALID,24.454,VALID,322,VALID,0.288281,
2014-09-04, 00:12:04,VALID,1010.22,VALID,0,INVALID,133.931,VALID,0,VALID,24.4345,VALID,322,VALID,0.0105469,
2014-09-04, 00:13:04,VALID,1010.22,VALID,0,INVALID,133.885,VALID,0,VALID,24.4345,VALID,322,VALID,0,
2014-09-04, 00:14:04,VALID,1010.22,VALID,0,INVALID,133.893,VALID,0,VALID,24.4345,VALID,322,VALID,0,
2014-09-04, 00:15:04,VALID,1010.23,VALID,0,INVALID,133.756,VALID,0,VALID,24.3937,VALID,322,VALID,0,
2014-09-04, 00:16:04,VALID,1010.27,VALID,0,INVALID,133.946,VALID,0,VALID,24.4345,VALID,322,VALID,0,
2014-09-04, 00:17:04,VALID,1010.28,VALID,0,INVALID,134.244,VALID,0,VALID,24.415,VALID,322,VALID,0,
2014-09-04, 00:18:04,VALID,1010.29,VALID,0,INVALID,134.617,VALID,0,VALID,24.415,VALID,322,VALID,0,
2014-09-04, 00:19:04,VALID,1010.29,VALID,0,INVALID,134.846,VALID,0,VALID,24.415,VALID,322,VALID,0.0667969,
2014-09-04, 00:20:04,VALID,1010.3,VALID,0,INVALID,135.105,VALID,0,VALID,24.4132,VALID,322,VALID,0.271094,
2014-09-04, 00:21:04,VALID,1010.29,VALID,0,INVALID,135.25,VALID,0,VALID,24.4345,VALID,322,VALID,0.246484,
2014-09-04, 00:22:04,VALID,1010.3,VALID,0,INVALID,134.999,VALID,0,VALID,24.4345,VALID,322,VALID,0.114453,
2014-09-04, 00:23:04,VALID,1010.33,VALID,0,INVALID,134.739,VALID,0,VALID,24.415,VALID,322,VALID,0.0449219,
2014-09-04, 00:24:04,VALID,1010.37,VALID,0,INVALID,134.579,VALID,0,VALID,24.415,VALID,322,VALID,0,
2014-09-04, 00:25:04,VALID,1010.41,VALID,0,INVALID,134.587,VALID,0,VALID,24.3937,VALID,322,VALID,0,
2014-09-04, 00:26:04,VALID,1010.4,VALID,0,INVALID,134.595,VALID,0,VALID,24.3956,VALID,322,VALID,0,
2014-09-04, 00:27:04,VALID,1010.43,VALID,0,INVALID,134.839,VALID,0,VALID,24.3742,VALID,322,VALID,0.102734,
2014-09-04, 00:28:04,VALID,1010.45,VALID,0,INVALID,135.075,VALID,0,VALID,24.4169,VALID,322,VALID,0.0183594,
2014-09-04, 00:29:04,VALID,1010.46,VALID,0,INVALID,135.098,VALID,0,VALID,24.415,VALID,322,VALID,0.00429688,
2014-09-04, 00:30:04,VALID,1010.49,VALID,0,INVALID,135.006,VALID,0,VALID,24.3742,VALID,322,VALID,0.125781,
2014-09-04, 00:31:04,VALID,1010.51,VALID,0,INVALID,134.915,VALID,0,VALID,24.3956,VALID,322,VALID,0.291016,
2014-09-04, 00:32:04,VALID,1010.52,VALID,0,INVALID,134.678,VALID,0,VALID,24.3956,VALID,322,VALID,0.35,
2014-09-04, 00:33:04,VALID,1010.55,VALID,0,INVALID,134.617,VALID,0,VALID,24.3956,VALID,322,VALID,0.367578,
2014-09-04, 00:34:04,VALID,1010.56,VALID,0,INVALID,134.663,VALID,0,VALID,24.3566,VALID,322,VALID,0.474609,
2014-09-04, 00:35:04,VALID,1010.59,VALID,0,INVALID,135.037,VALID,0,VALID,24.3371,VALID,322,VALID,0.330469,
2014-09-04, 00:36:04,VALID,1010.57,VALID,0,INVALID,135.449,VALID,0,VALID,24.3371,VALID,322,VALID,0.235938,
2014-09-04, 00:37:04,VALID,1010.59,VALID,0,INVALID,135.723,VALID,0,VALID,24.3371,VALID,322,VALID,0.278516,
2014-09-04, 00:38:04,VALID,1010.59,VALID,0,INVALID,135.822,VALID,0,VALID,24.3176,VALID,322,VALID,0,
2014-09-04, 00:39:04,VALID,1010.57,VALID,0,INVALID,136.074,VALID,0,VALID,24.3176,VALID,322,VALID,0.580078,
2014-09-04, 00:40:04,VALID,1010.61,VALID,0,INVALID,136.165,VALID,0,VALID,24.3176,VALID,322,VALID,0.470703,
2014-09-04, 00:41:04,VALID,1010.57,VALID,0,INVALID,136.219,VALID,0,VALID,24.3371,VALID,322,VALID,0.254297,
2014-09-04, 00:42:04,VALID,1010.57,VALID,0,INVALID,136.12,VALID,0,VALID,24.3352,VALID,322,VALID,0.028125,
2014-09-04, 00:43:04,VALID,1010.58,VALID,0,INVALID,136.066,VALID,0,VALID,24.3352,VALID,322,VALID,0.0585938,
2014-09-04, 00:44:04,VALID,1010.61,VALID,0,INVALID,136.021,VALID,0,VALID,24.3761,VALID,322,VALID,0,
2014-09-04, 00:45:04,VALID,1010.6,VALID,0,INVALID,135.929,VALID,0,VALID,24.3761,VALID,322,VALID,0.197266,
2014-09-04, 00:46:04,VALID,1010.61,VALID,0,INVALID,135.769,VALID,0,VALID,24.3761,VALID,322,VALID,0,
2014-09-04, 00:47:04,VALID,1010.62,VALID,0,INVALID,135.479,VALID,0,VALID,24.3761,VALID,322,VALID,0,
2014-09-04, 00:48:04,VALID,1010.6,VALID,0,INVALID,135.304,VALID,0,VALID,24.3761,VALID,322,VALID,0,
2014-09-04, 00:49:04,VALID,1010.57,VALID,0,INVALID,135.098,VALID,0,VALID,24.3566,VALID,322,VALID,0,
2014-09-04, 00:50:04,VALID,1010.53,VALID,0,INVALID,135.235,VALID,0,VALID,24.3371,VALID,322,VALID,0,
2014-09-04, 00:51:04,VALID,1010.53,VALID,0,INVALID,135.273,VALID,0,VALID,24.3566,VALID,322,VALID,0,
2014-09-04, 00:52:04,VALID,1010.47,VALID,0,INVALID,135.273,VALID,0,VALID,24.3371,VALID,322,VALID,0.148828,
2014-09-04, 00:53:04,VALID,1010.48,VALID,0,INVALID,135.342,VALID,0,VALID,24.3352,VALID,322,VALID,0.726563,
2014-09-04, 00:54:04,VALID,1010.44,VALID,0,INVALID,135.51,VALID,0,VALID,24.3371,VALID,322,VALID,0.402344,
2014-09-04, 00:55:04,VALID,1010.39,VALID,0,INVALID,135.586,VALID,0,VALID,24.3371,VALID,322,VALID,0.343359,
2014-09-04, 00:56:04,VALID,1010.34,VALID,0,INVALID,135.38,VALID,0,VALID,24.3371,VALID,322,VALID,0.00507812,
2014-09-04, 00:57:04,VALID,1010.3,VALID,0,INVALID,135.426,VALID,0,VALID,24.3371,VALID,322,VALID,0,
2014-09-04, 00:58:04,VALID,1010.32,VALID,0,INVALID,135.533,VALID,0,VALID,24.2963,VALID,322,VALID,0,
2014-09-04, 00:59:04,VALID,1010.3,VALID,0,INVALID,135.616,VALID,0,VALID,24.2981,VALID,322,VALID,0.0984375,
2014-09-04, 01:00:04,VALID,1010.3,VALID,0,INVALID,135.677,VALID,0,VALID,24.3176,VALID,322,VALID,0.19375,
2014-09-04, 01:01:04,VALID,1010.29,VALID,0,INVALID,135.891,VALID,0,VALID,24.2786,VALID,322,VALID,0.0667969,
2014-09-04, 01:02:04,VALID,1010.32,VALID,0,INVALID,136.013,VALID,0,VALID,24.2786,VALID,322,VALID,0.244922,
2014-09-04, 01:03:04,VALID,1010.3,VALID,0,INVALID,136.051,VALID,0,VALID,24.2786,VALID,322,VALID,0,
2014-09-04, 01:04:04,VALID,1010.31,VALID,0,INVALID,136.15,VALID,0,VALID,24.2591,VALID,322,VALID,0.0183594,
2014-09-04, 01:05:04,VALID,1010.32,VALID,0,INVALID,136.143,VALID,0,VALID,24.2396,VALID,322,VALID,0.275391,
2014-09-04, 01:06:04,VALID,1010.27,VALID,0,INVALID,136.409,VALID,0,VALID,24.2396,VALID,322,VALID,0.243359,
2014-09-04, 01:07:04,VALID,1010.24,VALID,0,INVALID,136.531,VALID,0,VALID,24.2415,VALID,322,VALID,0.249609,
2014-09-04, 01:08:04,VALID,1010.23,VALID,0,INVALID,136.646,VALID,0,VALID,24.2007,VALID,322,VALID,0.05625,
2014-09-04, 01:09:04,VALID,1010.19,VALID,0,INVALID,136.73,VALID,0,VALID,24.2007,VALID,322,VALID,0.181641,
2014-09-04, 01:10:04,VALID,1010.16,VALID,0,INVALID,136.875,VALID,0,VALID,24.2202,VALID,322,VALID,0.294922,
2014-09-04, 01:11:04,VALID,1010.16,VALID,0,INVALID,136.959,VALID,0,VALID,24.2202,VALID,322,VALID,0.283594,
2014-09-04, 01:12:04,VALID,1010.16,VALID,0,INVALID,136.951,VALID,0,VALID,24.2202,VALID,322,VALID,0.251953,
2014-09-04, 01:13:04,VALID,1010.15,VALID,0,INVALID,136.943,VALID,0,VALID,24.1988,VALID,322,VALID,0.156641,
2014-09-04, 01:14:04,VALID,1010.12,VALID,0,INVALID,136.882,VALID,0,VALID,24.2202,VALID,322,VALID,0,
2014-09-04, 01:15:04,VALID,1010.1,VALID,0,INVALID,136.783,VALID,0,VALID,24.2007,VALID,322,VALID,0.0328125,
2014-09-04, 01:16:04,VALID,1010.08,VALID,0,INVALID,136.699,VALID,0,VALID,24.1812,VALID,322,VALID,0,
2014-09-04, 01:17:04,VALID,1010.04,VALID,0,INVALID,136.699,VALID,0,VALID,24.1617,VALID,322,VALID,0.00273437,
2014-09-04, 01:18:04,VALID,1009.97,VALID,0,INVALID,136.867,VALID,0,VALID,24.1617,VALID,322,VALID,0,
2014-09-04, 01:19:04,VALID,1009.95,VALID,0,INVALID,136.859,VALID,0,VALID,24.1617,VALID,322,VALID,0,
2014-09-04, 01:20:04,VALID,1009.91,VALID,0,INVALID,136.882,VALID,0,VALID,24.1617,VALID,322,VALID,0.00195313,
2014-09-04, 01:21:04,VALID,1009.86,VALID,0,INVALID,137.027,VALID,0,VALID,24.1422,VALID,322,VALID,0,
2014-09-04, 01:22:04,VALID,1009.87,VALID,0,INVALID,137.073,VALID,0,VALID,24.1617,VALID,322,VALID,0.0824219,
2014-09-04, 01:23:04,VALID,1009.84,VALID,0,INVALID,137.035,VALID,0,VALID,24.1812,VALID,322,VALID,0,
2014-09-04, 01:24:04,VALID,1009.83,VALID,0,INVALID,136.974,VALID,0,VALID,24.1812,VALID,322,VALID,0,
2014-09-04, 01:25:04,VALID,1009.83,VALID,0,INVALID,136.989,VALID,0,VALID,24.1812,VALID,322,VALID,0,
2014-09-04, 01:26:04,VALID,1009.81,VALID,0,INVALID,136.966,VALID,0,VALID,24.1812,VALID,322,VALID,0,
2014-09-04, 01:27:04,VALID,1009.79,VALID,0,INVALID,136.989,VALID,0,VALID,24.2007,VALID,322,VALID,0,
2014-09-04, 01:28:04,VALID,1009.76,VALID,0,INVALID,136.959,VALID,0,VALID,24.1812,VALID,322,VALID,0,
2014-09-04, 01:29:04,VALID,1009.73,VALID,0,INVALID,136.898,VALID,0,VALID,24.1617,VALID,322,VALID,0,
2014-09-04, 01:30:04,VALID,1009.76,VALID,0,INVALID,136.898,VALID,0,VALID,24.1617,VALID,322,VALID,0,
2014-09-04, 01:31:04,VALID,1009.76,VALID,0,INVALID,136.829,VALID,0,VALID,24.1422,VALID,322,VALID,0,
2014-09-04, 01:32:04,VALID,1009.75,VALID,0,INVALID,136.768,VALID,0,VALID,24.1227,VALID,322,VALID,0,
2014-09-04, 01:33:04,VALID,1009.79,VALID,0,INVALID,136.73,VALID,0,VALID,24.1032,VALID,322,VALID,0,
2014-09-04, 01:34:04,VALID,1009.76,VALID,0,INVALID,136.654,VALID,0,VALID,24.0837,VALID,322,VALID,0,
2014-09-04, 01:35:04,VALID,1009.77,VALID,0,INVALID,136.623,VALID,0,VALID,24.0643,VALID,322,VALID,0,
2014-09-04, 01:36:04,VALID,1009.8,VALID,0,INVALID,136.737,VALID,0,VALID,24.0624,VALID,322,VALID,0,
2014-09-04, 01:37:04,VALID,1009.78,VALID,0,INVALID,136.844,VALID,0,VALID,24.0643,VALID,322,VALID,0,
2014-09-04, 01:38:04,VALID,1009.78,VALID,0,INVALID,136.936,VALID,0,VALID,24.0643,VALID,322,VALID,0,
2014-09-04, 01:39:04,VALID,1009.74,VALID,0,INVALID,136.966,VALID,0,VALID,24.0643,VALID,322,VALID,0,
2014-09-04, 01:40:04,VALID,1009.74,VALID,0,INVALID,137.035,VALID,0,VALID,24.0837,VALID,322,VALID,0,
2014-09-04, 01:41:04,VALID,1009.72,VALID,0,INVALID,137.02,VALID,0,VALID,24.0837,VALID,322,VALID,0,
2014-09-04, 01:42:04,VALID,1009.71,VALID,0,INVALID,137.02,VALID,0,VALID,24.0429,VALID,322,VALID,0,
2014-09-04, 01:43:04,VALID,1009.69,VALID,0,INVALID,137.004,VALID,0,VALID,24.0643,VALID,322,VALID,0,
2014-09-04, 01:44:04,VALID,1009.67,VALID,0,INVALID,137.004,VALID,0,VALID,24.0661,VALID,322,VALID,0,
2014-09-04, 01:45:04,VALID,1009.7,VALID,0,INVALID,137.027,VALID,0,VALID,24.0643,VALID,322,VALID,0,
2014-09-04, 01:46:04,VALID,1009.68,VALID,0,INVALID,137.004,VALID,0,VALID,24.0448,VALID,322,VALID,0.0585938,
2014-09-04, 01:47:04,VALID,1009.67,VALID,0,INVALID,137.004,VALID,0,VALID,24.0253,VALID,322,VALID,0.121875,
2014-09-04, 01:48:04,VALID,1009.64,VALID,0,INVALID,137.058,VALID,0.112112,VALID,24.0253,VALID,322,VALID,0,
2014-09-04, 01:49:04,VALID,1009.64,VALID,0,INVALID,136.989,VALID,0,VALID,24.0253,VALID,322,VALID,0,
2014-09-04, 01:50:04,VALID,1009.62,VALID,0,INVALID,136.997,VALID,0,VALID,24.0253,VALID,322,VALID,0,
2014-09-04, 01:51:04,VALID,1009.62,VALID,0,INVALID,136.974,VALID,0,VALID,24.004,VALID,322,VALID,0,
2014-09-04, 01:52:04,VALID,1009.59,VALID,0,INVALID,136.974,VALID,0,VALID,24.0058,VALID,322,VALID,0,
2014-09-04, 01:53:04,VALID,1009.59,VALID,0,INVALID,136.959,VALID,0,VALID,24.0058,VALID,322,VALID,0,
2014-09-04, 01:54:04,VALID,1009.59,VALID,0,INVALID,136.981,VALID,0,VALID,23.9863,VALID,322,VALID,0,
2014-09-04, 01:55:04,VALID,1009.57,VALID,0,INVALID,136.966,VALID,0,VALID,23.965,VALID,322,VALID,0,
2014-09-04, 01:56:04,VALID,1009.58,VALID,0,INVALID,136.936,VALID,0,VALID,24.0058,VALID,322,VALID,0,
2014-09-04, 01:57:04,VALID,1009.56,VALID,0,INVALID,136.913,VALID,0,VALID,24.0253,VALID,322,VALID,0.025,
2014-09-04, 01:58:04,VALID,1009.55,VALID,0,INVALID,136.859,VALID,0,VALID,24.0058,VALID,322,VALID,0.133594,
2014-09-04, 01:59:04,VALID,1009.55,VALID,0,INVALID,136.852,VALID,0,VALID,24.0058,VALID,322,VALID,0,
2014-09-04, 02:00:04,VALID,1009.54,VALID,0,INVALID,136.814,VALID,0,VALID,24.004,VALID,322,VALID,0,
2014-09-04, 02:01:04,VALID,1009.55,VALID,0,INVALID,136.707,VALID,0,VALID,24.004,VALID,322,VALID,0,
2014-09-04, 02:02:04,VALID,1009.57,VALID,0,INVALID,136.676,VALID,0,VALID,24.0253,VALID,322,VALID,0,
2014-09-04, 02:03:04,VALID,1009.57,VALID,0,INVALID,136.654,VALID,0,VALID,24.0253,VALID,322,VALID,0,
2014-09-04, 02:04:04,VALID,1009.57,VALID,0,INVALID,136.661,VALID,0,VALID,24.0448,VALID,322,VALID,0,
2014-09-04, 02:05:04,VALID,1009.59,VALID,0,INVALID,136.722,VALID,0,VALID,24.0253,VALID,322,VALID,0,
2014-09-04, 02:06:04,VALID,1009.57,VALID,0,INVALID,136.768,VALID,0,VALID,24.0058,VALID,322,VALID,0,
2014-09-04, 02:07:04,VALID,1009.57,VALID,0,INVALID,136.791,VALID,0,VALID,23.9863,VALID,322,VALID,0,
2014-09-04, 02:08:04,VALID,1009.55,VALID,0,INVALID,136.814,VALID,0,VALID,24.0058,VALID,322,VALID,0,
2014-09-04, 02:09:04,VALID,1009.55,VALID,0,INVALID,136.798,VALID,0,VALID,24.0253,VALID,322,VALID,0,
2014-09-04, 02:10:04,VALID,1009.54,VALID,0,INVALID,136.753,VALID,0,VALID,24.0253,VALID,322,VALID,0,
2014-09-04, 02:11:04,VALID,1009.55,VALID,0,INVALID,136.753,VALID,0,VALID,24.0253,VALID,322,VALID,0,
2014-09-04, 02:12:04,VALID,1009.53,VALID,0,INVALID,136.715,VALID,0,VALID,24.0448,VALID,322,VALID,0,
2014-09-04, 02:13:04,VALID,1009.55,VALID,0,INVALID,136.707,VALID,0,VALID,24.0253,VALID,322,VALID,0,
2014-09-04, 02:14:04,VALID,1009.54,VALID,0,INVALID,136.76,VALID,0,VALID,24.0448,VALID,322,VALID,0,
2014-09-04, 02:15:04,VALID,1009.52,VALID,0,INVALID,136.776,VALID,0,VALID,24.0253,VALID,322,VALID,0,
2014-09-04, 02:16:04,VALID,1009.5,VALID,0,INVALID,136.776,VALID,0,VALID,24.0448,VALID,322,VALID,0,
2014-09-04, 02:17:04,VALID,1009.49,VALID,0,INVALID,136.783,VALID,0,VALID,24.0448,VALID,322,VALID,0,
2014-09-04, 02:18:04,VALID,1009.45,VALID,0,INVALID,136.783,VALID,0,VALID,24.004,VALID,322,VALID,0,
2014-09-04, 02:19:04,VALID,1009.42,VALID,0,INVALID,136.806,VALID,0,VALID,24.0253,VALID,322,VALID,0.226172,
2014-09-04, 02:20:04,VALID,1009.43,VALID,0,INVALID,136.806,VALID,0,VALID,24.0448,VALID,322,VALID,0.520703,
2014-09-04, 02:21:04,VALID,1009.36,VALID,0,INVALID,136.776,VALID,0,VALID,24.0643,VALID,322,VALID,0.459766,
2014-09-04, 02:22:04,VALID,1009.36,VALID,0,INVALID,136.821,VALID,0,VALID,24.0643,VALID,322,VALID,0.225391,
2014-09-04, 02:23:04,VALID,1009.33,VALID,0,INVALID,136.852,VALID,0,VALID,24.0643,VALID,322,VALID,0,
2014-09-04, 02:24:04,VALID,1009.31,VALID,0,INVALID,136.905,VALID,0,VALID,24.0643,VALID,322,VALID,0,
2014-09-04, 02:25:04,VALID,1009.28,VALID,0,INVALID,136.943,VALID,0,VALID,24.0643,VALID,322,VALID,0,
2014-09-04, 02:26:04,VALID,1009.27,VALID,0,INVALID,136.943,VALID,0,VALID,24.0643,VALID,322,VALID,0,
2014-09-04, 02:27:04,VALID,1009.24,VALID,0,INVALID,136.951,VALID,0,VALID,24.0661,VALID,322,VALID,0,
2014-09-04, 02:28:05,VALID,1009.25,VALID,0,INVALID,136.928,VALID,0,VALID,24.0448,VALID,322,VALID,0,
2014-09-04, 02:29:04,VALID,1009.23,VALID,0,INVALID,136.951,VALID,0,VALID,24.0448,VALID,322,VALID,0,
2014-09-04, 02:30:04,VALID,1009.25,VALID,0,INVALID,136.943,VALID,0,VALID,24.0448,VALID,322,VALID,0,
2014-09-04, 02:31:04,VALID,1009.21,VALID,0,INVALID,136.951,VALID,0,VALID,24.0253,VALID,322,VALID,0,
2014-09-04, 02:32:04,VALID,1009.23,VALID,0,INVALID,136.936,VALID,0,VALID,24.0058,VALID,322,VALID,0,
2014-09-04, 02:33:04,VALID,1009.24,VALID,0,INVALID,136.936,VALID,0,VALID,24.0058,VALID,322,VALID,0,
2014-09-04, 02:34:05,VALID,1009.24,VALID,0,INVALID,136.875,VALID,0,VALID,23.965,VALID,322,VALID,0.357031,
2014-09-04, 02:35:05,VALID,1009.24,VALID,0,INVALID,136.974,VALID,0,VALID,23.9473,VALID,322,VALID,0.399609,
2014-09-04, 02:36:05,VALID,1009.26,VALID,0,INVALID,136.966,VALID,0,VALID,23.9278,VALID,322,VALID,0.0957031,
2014-09-04, 02:37:05,VALID,1009.25,VALID,0,INVALID,137.073,VALID,0,VALID,23.9278,VALID,322,VALID,0.0078125,
2014-09-04, 02:38:05,VALID,1009.24,VALID,0,INVALID,137.157,VALID,0,VALID,23.9491,VALID,322,VALID,0,
2014-09-04, 02:39:05,VALID,1009.26,VALID,0,INVALID,137.233,VALID,0,VALID,23.9278,VALID,322,VALID,0.154297,
2014-09-04, 02:40:05,VALID,1009.27,VALID,0,INVALID,137.195,VALID,0,VALID,23.9278,VALID,322,VALID,0,
2014-09-04, 02:41:05,VALID,1009.28,VALID,0,INVALID,137.195,VALID,0,VALID,23.9473,VALID,322,VALID,0.0503906,
2014-09-04, 02:42:05,VALID,1009.28,VALID,0,INVALID,137.164,VALID,0,VALID,23.9278,VALID,322,VALID,0.338672,
2014-09-04, 02:43:05,VALID,1009.27,VALID,0,INVALID,137.142,VALID,0,VALID,23.9065,VALID,322,VALID,0.338281,
2014-09-04, 02:44:05,VALID,1009.29,VALID,0,INVALID,137.164,VALID,0.112112,VALID,23.9473,VALID,322,VALID,0.0347656,
2014-09-04, 02:45:05,VALID,1009.29,VALID,0,INVALID,137.142,VALID,0.112112,VALID,23.9278,VALID,322,VALID,0.363281,
2014-09-04, 02:46:05,VALID,1009.27,VALID,0,INVALID,137.149,VALID,0,VALID,23.9473,VALID,322,VALID,0.255859,
2014-09-04, 02:47:05,VALID,1009.26,VALID,0,INVALID,137.103,VALID,0,VALID,23.9473,VALID,322,VALID,0.0109375,
2014-09-04, 02:48:05,VALID,1009.27,VALID,0,INVALID,137.042,VALID,0,VALID,23.9473,VALID,322,VALID,0.199609,
2014-09-04, 02:49:05,VALID,1009.23,VALID,0,INVALID,137.02,VALID,0,VALID,23.9473,VALID,322,VALID,0.348047,
2014-09-04, 02:50:05,VALID,1009.21,VALID,0,INVALID,137.004,VALID,0,VALID,23.9668,VALID,322,VALID,0.529297,
2014-09-04, 02:51:05,VALID,1009.23,VALID,0,INVALID,136.92,VALID,0,VALID,23.9668,VALID,322,VALID,0.317969,
2014-09-04, 02:52:05,VALID,1009.21,VALID,0,INVALID,136.859,VALID,0,VALID,23.9668,VALID,322,VALID,0.496875,
2014-09-04, 02:53:05,VALID,1009.2,VALID,0,INVALID,136.852,VALID,0,VALID,23.9668,VALID,322,VALID,0.612891,
2014-09-04, 02:54:05,VALID,1009.18,VALID,0,INVALID,136.821,VALID,0,VALID,23.9668,VALID,322,VALID,0.34375,
2014-09-04, 02:55:05,VALID,1009.19,VALID,0,INVALID,136.798,VALID,0,VALID,23.9863,VALID,322,VALID,0.126563,
2014-09-04, 02:56:05,VALID,1009.2,VALID,0,INVALID,136.638,VALID,0,VALID,23.9668,VALID,322,VALID,0.207031,
2014-09-04, 02:57:05,VALID,1009.21,VALID,0,INVALID,136.562,VALID,0,VALID,23.9881,VALID,322,VALID,0.253906,
2014-09-04, 02:58:05,VALID,1009.21,VALID,0,INVALID,136.722,VALID,0,VALID,23.9863,VALID,322,VALID,0.118359,
2014-09-04, 02:59:05,VALID,1009.19,VALID,0,INVALID,136.943,VALID,0,VALID,23.9863,VALID,322,VALID,0.31875,
2014-09-04, 03:00:05,VALID,1009.21,VALID,0,INVALID,136.89,VALID,0,VALID,23.9863,VALID,322,VALID,0,
2014-09-04, 03:01:05,VALID,1009.2,VALID,0,INVALID,136.76,VALID,0,VALID,23.965,VALID,322,VALID,0,
2014-09-04, 03:02:05,VALID,1009.19,VALID,0,INVALID,136.669,VALID,0,VALID,23.9863,VALID,322,VALID,0,
2014-09-04, 03:03:05,VALID,1009.18,VALID,0,INVALID,136.646,VALID,0,VALID,23.9455,VALID,322,VALID,0.113672,
2014-09-04, 03:04:05,VALID,1009.18,VALID,0,INVALID,136.707,VALID,0,VALID,23.9668,VALID,322,VALID,0.11875,
2014-09-04, 03:05:05,VALID,1009.16,VALID,0,INVALID,136.783,VALID,0.112112,VALID,23.9668,VALID,322,VALID,0.0078125,
2014-09-04, 03:06:05,VALID,1009.19,VALID,0,INVALID,136.905,VALID,0,VALID,23.9668,VALID,322,VALID,0.360156,
2014-09-04, 03:07:05,VALID,1009.22,VALID,0,INVALID,137.02,VALID,0,VALID,23.9668,VALID,322,VALID,0.211719,
2014-09-04, 03:08:05,VALID,1009.21,VALID,0,INVALID,137.004,VALID,0,VALID,23.9473,VALID,322,VALID,0.235547,
2014-09-04, 03:09:05,VALID,1009.19,VALID,0,INVALID,137.012,VALID,0,VALID,23.9473,VALID,322,VALID,0.0375,
2014-09-04, 03:10:05,VALID,1009.16,VALID,0,INVALID,137.027,VALID,0,VALID,23.9473,VALID,322,VALID,0,
2014-09-04, 03:11:05,VALID,1009.16,VALID,0,INVALID,137.081,VALID,0,VALID,23.9473,VALID,322,VALID,0,
2014-09-04, 03:12:05,VALID,1009.14,VALID,0,INVALID,137.081,VALID,0,VALID,23.9473,VALID,322,VALID,0,
2014-09-04, 03:13:05,VALID,1009.12,VALID,0,INVALID,137.134,VALID,0,VALID,23.9278,VALID,322,VALID,0.214062,
2014-09-04, 03:14:05,VALID,1009.1,VALID,0,INVALID,137.172,VALID,0,VALID,23.9278,VALID,322,VALID,0,
2014-09-04, 03:15:05,VALID,1009.09,VALID,0,INVALID,137.18,VALID,0,VALID,23.9278,VALID,322,VALID,0,
2014-09-04, 03:16:05,VALID,1009.08,VALID,0,INVALID,137.149,VALID,0,VALID,23.9278,VALID,322,VALID,0,
2014-09-04, 03:17:05,VALID,1009.04,VALID,0,INVALID,137.172,VALID,0,VALID,23.9278,VALID,322,VALID,0,
2014-09-04, 03:18:05,VALID,1009.01,VALID,0,INVALID,137.126,VALID,0,VALID,23.9084,VALID,322,VALID,0,
2014-09-04, 03:19:05,VALID,1009.05,VALID,0,INVALID,137.111,VALID,0,VALID,23.9084,VALID,322,VALID,0,
2014-09-04, 03:20:05,VALID,1009.02,VALID,0,INVALID,137.035,VALID,0,VALID,23.9084,VALID,322,VALID,0,
2014-09-04, 03:21:05,VALID,1009.03,VALID,0,INVALID,137.027,VALID,0,VALID,23.8694,VALID,322,VALID,0,
2014-09-04, 03:22:05,VALID,1009.03,VALID,0,INVALID,136.943,VALID,0,VALID,23.8499,VALID,322,VALID,0,
2014-09-04, 03:23:05,VALID,1009.06,VALID,0,INVALID,137.004,VALID,0,VALID,23.8304,VALID,322,VALID,0,
2014-09-04, 03:24:05,VALID,1009.05,VALID,0,INVALID,137.187,VALID,0,VALID,23.8304,VALID,322,VALID,0,
2014-09-04, 03:25:05,VALID,1009.04,VALID,0,INVALID,137.256,VALID,0,VALID,23.8304,VALID,322,VALID,0,
2014-09-04, 03:26:05,VALID,1009.06,VALID,0,INVALID,137.233,VALID,0,VALID,23.8109,VALID,322,VALID,0,
2014-09-04, 03:27:05,VALID,1009.1,VALID,0,INVALID,137.218,VALID,0.112112,VALID,23.7701,VALID,322,VALID,0,
2014-09-04, 03:28:05,VALID,1009.09,VALID,0,INVALID,137.172,VALID,0,VALID,23.7914,VALID,322,VALID,0,
2014-09-04, 03:29:05,VALID,1009.12,VALID,0,INVALID,137.157,VALID,0,VALID,23.7507,VALID,322,VALID,0,
2014-09-04, 03:30:05,VALID,1009.15,VALID,0,INVALID,137.149,VALID,0,VALID,23.7312,VALID,322,VALID,0.21875,
2014-09-04, 03:31:05,VALID,1009.15,VALID,0,INVALID,137.294,VALID,0,VALID,23.7525,VALID,322,VALID,0.559375,
2014-09-04, 03:32:05,VALID,1009.17,VALID,0,INVALID,137.347,VALID,0,VALID,23.772,VALID,322,VALID,0.573828,
2014-09-04, 03:33:05,VALID,1009.19,VALID,0,INVALID,137.256,VALID,0,VALID,23.7914,VALID,322,VALID,0.500391,
2014-09-04, 03:34:05,VALID,1009.18,VALID,0,INVALID,137.195,VALID,0,VALID,23.7914,VALID,322,VALID,0.433594,
2014-09-04, 03:35:05,VALID,1009.2,VALID,0,INVALID,137.126,VALID,0,VALID,23.8109,VALID,322,VALID,0.266797,
2014-09-04, 03:36:05,VALID,1009.19,VALID,0,INVALID,137.05,VALID,0,VALID,23.8304,VALID,322,VALID,0.0546875,
2014-09-04, 03:37:05,VALID,1009.2,VALID,0,INVALID,137.035,VALID,0,VALID,23.7896,VALID,322,VALID,0,
2014-09-04, 03:38:05,VALID,1009.22,VALID,0,INVALID,137.065,VALID,0.112112,VALID,23.8109,VALID,322,VALID,0,
2014-09-04, 03:39:05,VALID,1009.21,VALID,0,INVALID,137.027,VALID,0,VALID,23.7914,VALID,322,VALID,0,
2014-09-04, 03:40:05,VALID,1009.21,VALID,0,INVALID,137.027,VALID,0,VALID,23.7914,VALID,322,VALID,0,
2014-09-04, 03:41:05,VALID,1009.2,VALID,0,INVALID,136.997,VALID,0,VALID,23.7914,VALID,322,VALID,0,
2014-09-04, 03:42:05,VALID,1009.21,VALID,0,INVALID,137.004,VALID,0.112112,VALID,23.7914,VALID,322,VALID,0,
2014-09-04, 03:43:05,VALID,1009.21,VALID,0,INVALID,137.004,VALID,0,VALID,23.772,VALID,322,VALID,0,
2014-09-04, 03:44:05,VALID,1009.23,VALID,0,INVALID,136.997,VALID,0,VALID,23.7525,VALID,322,VALID,0,
2014-09-04, 03:45:05,VALID,1009.21,VALID,0,INVALID,136.997,VALID,0,VALID,23.733,VALID,322,VALID,0,
2014-09-04, 03:46:05,VALID,1009.2,VALID,0,INVALID,137.035,VALID,0,VALID,23.733,VALID,322,VALID,0,
2014-09-04, 03:47:05,VALID,1009.22,VALID,0,INVALID,137.02,VALID,0,VALID,23.7135,VALID,322,VALID,0,